Location: Unspecified
(51.5147°N, 7.4673°E)
Time: 21:32:18
(UTC+01:00)

Vanguard 1 Rocket - Pass Details

Date: 17 February 2026
Orbit: 653 x 4214 km, 34.3° (Epoch: 8 March)

Event Time Altitude Azimuth Distance (km) Brightness Sun altitude
Rises 14:06:43 0° 222° (SW) 4,503 12.1 24.1°
Reaches altitude 10° 14:09:35 10° 212° (SSW) 3,896 12.5 24.0°
Maximum altitude 14:18:55 33° 153° (SSE) 3,525 11.2 23.4°
Drops below altitude 10° 14:34:35 10° 100° (E) 6,565 11.6 22.3°
Sets 14:41:22 0° 93° (E) 8,029 12.0 21.7°
